www.pogodaiklimat.ru

Погода и климат >> Архив погоды >> Норвегия >> Krakenes Fyr


ПОГОДА в Krakenes Fyr

  • Прогноз погоды в Krakenes Fyr
  • Монитор погоды в Krakenes Fyr
  • Климат города

АРХИВ ПОГОДЫ в Krakenes Fyr

Время (UTC), дата Ветер
(напр.,м/с)
 
Видим.   Явления Облачность Т
(С)
Тd
(С)
f
(%)
Тe
(С)
Тes
(С)
Комфортность P
(гПа)
Po
(гПа)
Тmin
(С)
Tmax
(С)
R
(мм)
R24
(мм)
S
(см)
17 17.09 ЮЗ 16
{20}
н/о н/о +12.7 +11.9 95 +8 +8 1004.5 999.8
16 17.09 ЮЗ 19
{22}
н/о н/о +12.7 +11.6 93 +8 +8 1004.2 999.5
18 17.09 ЮЗ 16
{22}
н/о н/о +12.8 +12.3 97 +8 +8 1004.5 999.8 +10.2 +12.9
19 17.09 Ю 18
{22}
н/о н/о +13.1 +11.3 89 +9 +9 1003.8 999.1
20 17.09 Ю 15
{22}
н/о н/о +12.4 +11.1 92 +8 +8 1004.1 999.3
21 17.09 Ю 10
{18}
н/о н/о +12.1 +10.7 91 +8 +8 1004.2 999.4
23 17.09 Ю 8
{14}
н/о н/о +12.8 +11.2 90 +10 +10 1002.8 998.1
22 17.09 Ю 10
{14}
н/о н/о +12.4 +12.1 98 +9 +9 1003.3 998.6
00 18.09 Ю 9
{22}
н/о н/о +13.4 +10.9 85 +10 +10 1001.6 996.9
01 18.09 Ю 6
{17}
н/о н/о +12.9 +11.5 91 +10 +10 1000.8 996.1
02 18.09 Ю 9
{17}
н/о н/о +13.2 +11.4 89 +10 +10 998.9 994.2
03 18.09 ЮВ 17
{16}
н/о н/о +13.1 +12.6 97 +11 +11 997.6 992.9
05 18.09 Ю 16
{20}
н/о н/о +14.5 +14.3 99 +11 +11 994.6 989.9
04 18.09 Ю 11
{20}
н/о н/о +14.8 +14.0 95 +12 +12 995.5 990.8
06 18.09 Ю 23
{27}
н/о н/о +14.8 +14.6 99 +11 +11 993.4 988.7 +12.0 +15.1
07 18.09 Ю 22
{28}
н/о н/о +14.8 +14.6 99 +11 +11 992.9 988.2
08 18.09 Ю 22
{29}
н/о н/о +14.9 +14.7 99 +11 +11 994.1 989.4
09 18.09 Ю 19
{26}
н/о н/о +15.6 +15.4 99 +12 +12 994.5 989.8
11 18.09 Ю 20
{25}
н/о н/о +15.8 +14.2 90 +13 +13 994.4 989.8
10 18.09 Ю 19
{24}
н/о н/о +14.9 +14.7 99 +11 +11 994.5 989.8
12 18.09 Ю 19
{29}
н/о н/о +16.8 +11.7 72 +14 +14 994.8 990.2
13 18.09 Ю 15
{24}
н/о н/о +17.1 +12.0 72 +15 +15 994.8 990.2
14 18.09 Ю 12
{20}
н/о н/о +18.2 +11.3 64 +17 +17 994.3 989.7
15 18.09 Ю 7
{15}
н/о н/о +17.5 +12.0 70 +17 +17 994.1 989.5
17 18.09 Ю 15
{18}
н/о н/о +15.6 +15.4 99 +13 +13 992.2 987.6
16 18.09 Ю 5
{9}
н/о н/о +15.9 +14.8 93 +15 +15 992.5 987.9
18 18.09 Ю 12
{24}
н/о н/о +16.3 +14.7 90 +14 +14 991.6 987.0 +14.6 +18.2
19 18.09 Ю 4
{16}
н/о н/о +15.4 +15.2 99 +14 +14 992.0 987.4
20 18.09 Ю 16
{19}
н/о н/о +14.4 +14.2 99 +11 +11 990.5 985.8
21 18.09 Ю 17
{22}
н/о н/о +14.0 +13.9 99 +10 +10 990.9 986.2
23 18.09 Ю 16
{21}
н/о н/о +13.8 +13.7 99 +10 +10 991.3 986.6
22 18.09 Ю 18
{20}
н/о н/о +13.4 +13.3 99 +9 +9 990.8 986.1
00 19.09 Ю 18
{25}
н/о н/о +13.6 +13.5 99 +9 +9 991.7 987.0
01 19.09 Ю 17
{21}
н/о н/о +13.9 +13.8 99 +10 +10 992.1 987.4
02 19.09 Ю 19
{23}
н/о н/о +13.9 +13.8 99 +10 +10 992.3 987.6
03 19.09 Ю 23
{28}
н/о н/о +13.6 +13.5 99 +9 +9 991.6 986.9
05 19.09 Ю 20
{30}
н/о н/о +14.1 +11.6 85 +10 +10 992.8 988.1
04 19.09 Ю 26 н/о н/о +13.1 +12.9 99 +8 +8 991.5 986.8
06 19.09 Ю 16
{30}
н/о н/о +14.3 +12.2 87 +11 +11 993.4 988.7 +13.1 +16.3
07 19.09 Ю 20
{29}
н/о н/о +14.9 +11.5 80 +11 +11 992.6 987.9
08 19.09 Ю 26
{32}
н/о н/о +14.7 +9.1 69 +11 +11 992.0 987.3
09 19.09 Ю 24
{30}
н/о н/о +14.7 +8.9 68 +11 +11 992.5 987.8
11 19.09 Ю 22
{29}
н/о н/о +13.4 +9.3 76 +9 +9 994.8 990.1
10 19.09 Ю 25
{39}
н/о н/о +12.9 +9.5 80 +8 +8 993.2 988.5
12 19.09 Ю 20
{39}
н/о н/о +13.6 +9.1 74 +9 +9 994.8 990.1
13 19.09 Ю 20
{25}
н/о н/о +14.0 +8.4 69 +10 +10 994.2 989.5
14 19.09 Ю 17
{26}
н/о н/о +14.3 +8.9 70 +11 +11 994.2 989.5
15 19.09 Ю 6
{24}
н/о н/о +15.1 +6.4 56 +14 +14 992.6 987.9
17 19.09 В 10
{22}
н/о н/о +12.1 +7.0 71 +9 +9 986.6 981.9
16 19.09 Ю 16
{24}
н/о н/о +14.9 +4.3 49 +12 +12 989.6 985.0
18 19.09 ЮВ 11
{26}
н/о н/о +13.7 +8.1 69 +11 +11 982.8 978.2 +10.5 +16.0
19 19.09 Ю 19
{31}
н/о н/о +14.7 +10.5 76 +11 +11 979.4 974.8
20 19.09 Ю 27
{39}
н/о н/о +13.2 +9.7 79 +8 +8 977.5 972.9
21 19.09 Ю 29
{38}
н/о н/о +12.4 +11.1 92 +7 +7 976.3 971.7
23 19.09 Ю 36
{44}
н/о н/о +11.3 +11.2 99 +4 +4 975.6 971.0
22 19.09 Ю 30
{42}
н/о н/о +12.7 +8.8 77 +7 +7 976.6 972.0
00 20.09 Ю 37
{47}
н/о н/о +11.8 +10.1 89 +5 +5 975.7 971.1
01 20.09 Ю 36
{45}
н/о н/о +11.7 +10.5 92 +5 +5 977.3 972.7
02 20.09 Ю 30
{39}
н/о н/о +11.6 +10.7 94 +5 +5 982.2 977.5
03 20.09 ЮЗ 29
{36}
н/о н/о +11.0 +10.9 99 +4 +4 982.7 978.0
05 20.09 Ю 31
{36}
н/о н/о +11.5 +10.9 96 +5 +5 984.0 979.3
04 20.09 ЮЗ 28
{35}
н/о н/о +10.6 +10.5 99 +4 +4 983.9 979.2
06 20.09 Ю 32
{45}
н/о н/о +11.9 +7.6 75 +6 +6 984.0 979.3 +10.0 +15.8
07 20.09 Ю 31
{38}
н/о н/о +11.8 +7.7 76 +6 +6 984.1 979.4
08 20.09 Ю 30
{37}
н/о н/о +11.8 +7.7 76 +6 +6 985.2 980.5
09 20.09 Ю 31
{37}
н/о н/о +11.6 +8.1 79 +5 +5 985.7 981.0
11 20.09 Ю 29
{37}
н/о н/о +11.1 +9.7 91 +5 +5 987.6 982.9
10 20.09 Ю 30
{35}
н/о н/о +12.0 +8.7 80 +6 +6 987.0 982.3
12 20.09 Ю 28
{38}
н/о н/о +11.6 +9.7 88 +6 +6 988.8 984.1
13 20.09 Ю 29
{37}
н/о н/о +12.0 +7.1 72 +6 +6 988.9 984.2
14 20.09 Ю 29
{35}
н/о н/о +12.2 +7.3 72 +7 +7 989.8 985.1
15 20.09 Ю 28
{34}
н/о н/о +12.2 +6.1 66 +7 +7 989.3 984.6
17 20.09 Ю 25
{34}
н/о н/о +10.9 +10.1 95 +5 +5 989.3 984.6
16 20.09 Ю 25
{34}
н/о н/о +11.9 +7.6 75 +6 +6 989.8 985.1
18 20.09 Ю 28
{37}
н/о н/о +11.5 +10.6 94 +5 +5 987.7 983.0 +9.9 +12.4
19 20.09 ЮЗ 29
{40}
н/о н/о +11.3 +11.2 99 +5 +5 988.4 983.7
20 20.09 ЮЗ 20
{32}
н/о н/о +11.3 +9.4 88 +6 +6 992.6 987.9
21 20.09 ЮЗ 20
{24}
н/о н/о +11.4 +7.1 75 +6 +6 993.8 989.1
23 20.09 ЮЗ 18
{21}
н/о н/о +11.3 +7.4 77 +6 +6 995.0 990.3
22 20.09 ЮЗ 19
{23}
н/о н/о +11.4 +7.3 76 +6 +6 994.4 989.7
00 21.09 ЮЗ 16
{40}
н/о н/о +11.2 +6.2 71 +6 +6 994.8 990.1
01 21.09 ЮЗ 15
{18}
н/о н/о +11.3 +7.0 75 +7 +7 994.8 990.1
02 21.09 Ю 13
{18}
н/о н/о +10.8 +9.4 91 +6 +6 994.5 989.8
03 21.09 ЮЗ 11
{15}
н/о н/о +11.0 +9.8 92 +7 +7 993.9 989.2
05 21.09 Ю 6
{10}
н/о н/о +10.5 +8.8 89 +7 +7 992.2 987.5
04 21.09 Ю 5
{13}
н/о н/о +10.5 +9.7 95 +7 +7 993.5 988.8
06 21.09 В 2
{18}
н/о н/о +9.5 +9.4 99 +8 +8 991.0 986.3 +9.5 +12.0
07 21.09 В 5
{5}
н/о н/о +9.9 +9.1 95 +7 +7 989.9 985.2
08 21.09 В 4
{6}
н/о н/о +10.0 +9.7 98 +7 +7 988.9 984.2
09 21.09 СВ 6
{8}
н/о н/о +10.5 +9.1 91 +7 +7 987.2 982.5
11 21.09 СВ 8
{12}
н/о н/о +10.1 +9.8 98 +6 +6 984.0 979.3
10 21.09 СВ 9
{12}
н/о н/о +10.2 +9.1 93 +6 +6 985.6 980.9
12 21.09 СВ 12
{14}
н/о н/о +10.7 +8.1 84 +6 +6 981.7 977.0
13 21.09 СВ 14
{17}
н/о н/о +10.6 +6.0 73 +6 +6 980.3 975.6
14 21.09 СВ 11
{16}
н/о н/о +10.5 +6.5 76 +6 +6 979.0 974.3
15 21.09 СВ 13
{17}
н/о н/о +10.6 +7.5 81 +6 +6 977.6 972.9
17 21.09 С 21
{26}
н/о н/о +9.7 +9.6 99 +3 +3 976.3 971.6
16 21.09 СВ 11
{17}
н/о н/о +10.0 +8.6 91 +5 +5 977.1 972.4
18 21.09 С 19
{26}
н/о н/о +8.9 +8.8 99 +2 +2 978.2 973.5 +8.9 +10.8
19 21.09 С 16
{21}
н/о н/о +8.4 +8.3 99 +2 +2 980.1 975.4
20 21.09 С 11
{18}
н/о н/о +8.4 +8.3 99 +3 +3 981.5 976.8
21 21.09 С 6
{12}
н/о н/о +9.0 +8.9 99 +5 +5 982.5 977.8
23 21.09 З 9
{11}
н/о н/о +9.7 +8.8 94 +5 +5 983.8 979.1
22 21.09 З 7
{9}
н/о н/о +9.6 +7.9 89 +6 +6 983.4 978.7
00 22.09 З 10
{21}
н/о н/о +9.6 +9.5 99 +5 +5 983.9 979.2
01 22.09 З 13
{17}
н/о н/о +9.8 +9.7 99 +4 +4 985.3 980.6
02 22.09 З 14
{20}
н/о н/о +9.2 +9.1 99 +3 +3 986.6 981.9
03 22.09 З 14
{18}
н/о н/о +10.3 +8.6 89 +5 +5 986.7 982.0
05 22.09 З 16
{19}
н/о н/о +9.9 +9.8 99 +4 +4 986.5 981.8
04 22.09 З 17
{20}
н/о н/о +9.1 +9.0 99 +3 +3 986.8 982.1
06 22.09 З 17
{20}
н/о н/о +9.1 +9.0 99 +3 +3 987.1 982.4 +8.2
07 22.09 ЮЗ 16
{20}
н/о н/о +9.7 +9.6 99 +4 +4 987.4 982.7
08 22.09 ЮЗ 14
{20}
н/о н/о +9.9 +9.0 94 +4 +4 988.4 983.7
09 22.09 З 15
{21}
н/о н/о +10.2 +6.9 80 +5 +5 989.1 984.4
11 22.09 ЮЗ 16
{21}
н/о н/о +10.3 +8.4 88 +5 +5 990.0 985.3
10 22.09 ЮЗ 15
{19}
н/о н/о +10.3 +7.7 84 +5 +5 989.5 984.8
12 22.09 ЮЗ 15
{21}
н/о н/о +10.4 +8.8 90 +5 +5 990.6 985.9
13 22.09 ЮЗ 14
{19}
н/о н/о +10.6 +8.5 87 +6 +6 991.6 986.9
14 22.09 З 14
{19}
н/о н/о +9.6 +9.5 99 +4 +4 992.2 987.5
15 22.09 З 11
{15}
н/о н/о +10.2 +9.9 98 +5 +5 993.6 988.9
17 22.09 СЗ 9
{15}
н/о н/о +10.0 +8.4 90 +6 +6 995.8 991.0
16 22.09 З 9
{14}
н/о н/о +10.3 +10.0 98 +6 +6 994.5 989.8
18 22.09 СЗ 11
{19}
н/о н/о +9.5 +8.0 90 +5 +5 996.8 992.0 +8.8 +10.8
19 22.09 СЗ 10
{13}
н/о н/о +9.9 +6.8 81 +5 +5 997.9 993.1
20 22.09 СЗ 10
{14}
н/о н/о +9.8 +7.1 83 +5 +5 998.7 993.9
21 22.09 СЗ 12
{15}
н/о н/о +9.1 +7.2 88 +4 +4 999.7 994.9
23 22.09 СЗ 10
{16}
н/о н/о +9.0 +6.8 86 +4 +4 1001.0 996.2
22 22.09 СЗ 10
{16}
н/о н/о +9.0 +6.8 86 +4 +4 1000.2 995.4
00 23.09 З 11
{16}
н/о н/о +8.7 +6.2 84 +3 +3 1001.4 996.6
01 23.09 СЗ 10
{16}
н/о н/о +8.8 +5.0 77 +4 +4 1002.0 997.2
02 23.09 СЗ 10
{14}
н/о н/о +8.5 +6.0 84 +3 +3 1002.5 997.7
03 23.09 СЗ 10
{16}
н/о н/о +7.5 +5.7 88 +2 +2 1003.1 998.3
05 23.09 СЗ 8
{16}
н/о н/о +8.6 +2.8 67 +4 +4 1003.8 999.0
04 23.09 СЗ 10
{16}
н/о н/о +8.4 +3.1 69 +4 +4 1003.3 998.5
06 23.09 СЗ 10
{16}
н/о н/о +8.5 +3.0 68 +4 +4 1004.4 999.6 +7.5 +10.0
07 23.09 СЗ 8
{16}
н/о н/о +6.9 +3.9 81 +2 +2 1005.2 1000.3
08 23.09 СЗ 9
{14}
н/о н/о +8.2 +3.1 70 +3 +3 1005.5 1000.7
09 23.09 СЗ 10
{13}
н/о н/о +8.2 +3.9 74 +3 +3 1006.3 1001.5
11 23.09 СЗ 10
{17}
н/о н/о +8.0 +4.6 79 +3 +3 1007.7 1002.9
10 23.09 СЗ 10
{15}
н/о н/о +7.9 +1.1 62 +3 +3 1007.2 1002.4
12 23.09 СЗ 8
{17}
н/о н/о +7.5 +4.5 81 +3 +3 1008.8 1003.9
13 23.09 СЗ 11
{15}
н/о н/о +8.2 +4.2 76 +3 +3 1009.1 1004.3
14 23.09 СЗ 14
{16}
н/о н/о +8.0 +1.6 64 +2 +2 1009.9 1005.0
15 23.09 СЗ 10
{14}
н/о н/о +8.2 +0.9 60 +3 +3 1010.6 1005.7
17 23.09 СЗ 12
{17}
н/о н/о +7.6 +1.7 66 +2 +2 1011.7 1006.8
16 23.09 СЗ 10
{17}
н/о н/о +7.7 +3.0 72 +3 +3 1011.1 1006.2
18 23.09 С 10
{17}
н/о н/о +6.8 +4.5 85 +1 +1 1012.5 1007.6 +8.6
19 23.09 СЗ 10
{15}
н/о н/о +7.3 +0.5 62 +2 +2 1013.2 1008.3
20 23.09 СЗ 9
{16}
н/о н/о +7.2 +2.7 73 +2 +2 1013.8 1008.9
21 23.09 СЗ 10
{15}
н/о н/о +7.3 +1.6 67 +2 +2 1014.3 1009.4
23 23.09 СЗ 10
{16}
н/о н/о +7.0 +1.1 66 +2 +2 1015.4 1010.5
22 23.09 З 15
{18}
н/о н/о +6.5 +3.5 81 -0 -0 1014.3 1009.4
00 24.09 СЗ 10
{18}
н/о н/о +6.6 +0.9 67 +1 +1 1016.0 1011.1
01 24.09 З 4
{17}
н/о н/о +5.8 +1.0 71 +2 +2 1016.6 1011.7
02 24.09 СЗ 11
{14}
н/о н/о +6.3 +3.6 83 0 0 1017.3 1012.4
03 24.09 З 5
{14}
н/о н/о +6.6 +1.5 70 +3 +3 1017.9 1013.0
05 24.09 З 6
{12}
н/о н/о +6.5 +2.0 73 +2 +2 1019.2 1014.3
04 24.09 СЗ 14
{18}
н/о н/о +5.7 +2.0 77 -1 -1 1018.8 1013.9
06 24.09 СЗ 10
{18}
н/о н/о +6.8 +0.7 65 +1 +1 1019.9 1015.0 +4.9 +7.6
07 24.09 СЗ 10
{14}
н/о н/о +6.7 +1.4 69 +1 +1 1020.8 1015.9
08 24.09 СЗ 7
{14}
н/о н/о +7.2 +1.5 67 +3 +3 1021.8 1016.9
09 24.09 СВ 9
{19}
н/о н/о +5.4 +2.2 80 -1 -1 1022.8 1017.8
11 24.09 СЗ 7
{14}
н/о н/о +6.3 +1.6 72 +1 +1 1024.6 1019.6
10 24.09 СЗ 4
{15}
н/о н/о +6.3 +3.6 83 +3 +3 1023.9 1018.9
12 24.09 СЗ 7
{19}
н/о н/о +8.2 +1.8 64 +4 +4 1025.1 1020.2
13 24.09 СЗ 6
{9}
н/о н/о +7.9 +1.3 63 +4 +4 1025.7 1020.8
14 24.09 З 4
{6}
н/о н/о +8.2 +1.4 62 +5 +5 1025.9 1021.0

 

Местоположение метеостанции Krakenes Fyr (Норвегия): широта 62.03 долгота 4.99 высота над уровнем моря 75 м.

В архиве по умолчанию представлена погода в Krakenes Fyr за последнюю неделю. Архивные данные за месяц целиком и за предыдущие месяцы, начиная с января 2011 года, Вы можете получить, выбрав интересующий диапазон дат из раскрывающегося списка и нажав кнопку "Ввод!".


*Определитесь, кто Вы:
робот инопланетянин человек

Внимание! Время в таблицах - всемирное. Для получения местного времени необходимо прибавить поправку, которая в Krakenes Fyr равна 1 ч.

Смотрите также архив погоды в соседних городах и на ближайших метеорологических станциях:

Погода в Bergen Lufthavn (Норвегия) (31 км)
Погода в Fiskabygd (Норвегия) (32 км)
Погода в Svinoy Fyr (Норвегия) (36 км)
Погода в Floro Lifthavn (Норвегия) (50 км)
Погода в Ytteroyane Fyr (Норвегия) (54 км)
Погода в Orsta-Volda Lufthavn (Норвегия) (59 км)
Погода в Sandane Lufthavn (Норвегия) (62 км)
Погода в Forde Tefre (Норвегия) (79 км)
Погода в Alesund IV (Норвегия) (80 км)
Погода в Forde Lifthavn (Норвегия) (82 км)

Пояснения к столбцам:

Ветер - указаны скорость ветра в м/с - средняя за 10 мин, порывы в срок и между сроками (в фигурных скобках) и направление, откуда дует ветер: С - северный, СВ - северо-восточный, В - восточный, ЮВ - юго-восточный, Ю - южный, ЮЗ - юго-западный, З - западный, СЗ - северо-западный.
Видимость - горизонтальная дальность видимости в метрах или километрах. При видимости от 1 до 10 км при отсутствии осадков обычно наблюдается дымка, при ухудшении видимости до 1 км и менее - туман. В сухую погоду видимость может ухудшаться дымом, пылью или мглою.
Явления - указаны атмосферные явления, наблюдавшиеся в срок или в последний час перед сроком; фигурными скобками обозначены явления, наблюдавшиеся между сроками (за 1-3 часа до срока); квадратными скобками обозначены град или гололедные отложения с указанием их диаметра в мм.
Облачность - указаны через наклонную черту общая и нижняя облачность в баллах и высота нижней границы облаков в метрах; квадратными скобками обозначены формы облаков: Ci - перистые, Cs - перисто-слоистые, Cc - перисто-кучевые, Ac - высококучевые, As - высокослоистые, Sc - слоисто-кучевые, Ns - слоисто-дождевые, Cu - кучевые, Cb - кучево-дождевые. Подробнее классификацию облаков см. в Атласе облаков (PDF).
T - Температура воздуха - температура, измеренная на высоте 2 м над землей.
Td - Температура точки росы - температура, при понижении до которой содержащийся в воздухе водяной пар достигнет насыщения.
f - Относительная влажность воздуха - влажноcть воздуха, измеренная на высоте 2 м над землей.
Te - Эффективная температура - температура, которую ощущает одетый по сезону человек в тени. Характеристика душности погоды. При расчете учитывается влияние влажности воздуха и скорости ветра на теплоощущения человека.
Tes - Эффективная температура на солнце - температура, которую ощущает человек, с поправкой на солнечный нагрев. Характеристика знойности погоды. Зависит от высоты солнца над горизонтом, облачности и скорости ветра. Ночью, в пасмурную погоду, а также при ветре 12 м/с и более поправка равна нулю.
P - Атмосферное давление - приведенное к уровню моря атмосферное давление.
Po - Атмосферное давление - измеренное на уровне метеостанции атмосферное давление.
Tmin - Минимальная температура - минимум температуры воздуха на высоте 2 м над землей.
Tmax - Максимальная температура - максимум температуры воздуха на высоте 2 м над землей.
R - Количество осадков - Количество выпавших осадков за период времени, мм. При наведении курсора мыши на число - период времени, за который выпало указанное количество осадков.
R24 - Количество осадков - Количество выпавших осадков за 24 часа, мм.
S - Снежный покров - Высота снежного покрова, см. При наведении курсора мыши на число - состояние снежного покрова и степень покрытия местности в баллах.